Tyler, TX

5:03 AM CST on February 11, 2016 (GMT -0600)
Tyler Pounds | | Change Station
CLOSE
Current Station
Airport
Location: Tyler,
Elevation: 541 ft
Nearby Weather Stations

Elev 541 ft 32.35 °N, 95.40 °W | Updated 10 minutes ago

Clear
Clear
56 °F
Feels Like 56 °F
N
13
Wind Variable Wind from SW

Today
High -- | Low -- °F
--% Chance of Precip.
Yesterday
High -- | Low -- °F
Precip. -- in
Pressure 30.06 in
Visibility -9999.0 miles
Clouds Clear
Dew Point 38 °F
Humidity 51%
Rainfall 0.00 in
Snow Depth Not available.
7:08 AM 6:03 PM
Waxing Crescent, 11% visible
METAR KTYR 111053Z AUTO 22011KT CLR 13/03 A3006 RMK AO2 SLP177 T01330033
Pressure 30.06 in
Visibility -9999.0 miles
Clouds Clear
Dew Point 38 °F
Humidity 51%
Rainfall 0.00 in
Snow Depth Not available.
7:08 AM 6:03 PM
Waxing Crescent, 11% visible
METAR KTYR 111053Z AUTO 22011KT CLR 13/03 A3006 RMK AO2 SLP177 T01330033

10-Day Weather Forecast

Almanac

Astronomy

Feb. 11, 2016 Rise Set
Actual Time
Civil Twilight
Nautical Twilight
Astronomical Twilight
Moon
Length of Visible Light
Length of Day
Tomorrow will be .
, % of the Moon is Illuminated

Today's Extremes

State Highs State Lows

Community

WunderPhotos

Upload Photos

1,892,030 photos uploaded!

WunderBlog® & News

Nearby

Air Quality

  Air Quality AQ Index Pollutant
Not available.

Snow Depth

Station Depth Elevation

Earthquake Activity

City Distance Mag. Time & Date
Minimum magnitude displayed is 2.5.

Coastal Water Temperatures

Place Temperature

Stations

Nearby Weather Stations

Station Location Temp. Windchill Dew Point Humidity Wind Precip. Elev Updated Type
                   

Watches & Warnings

There are currently no watches in effect.